Home   Weather   Prešov   Past weeks

Flag for Slovakia Past Weather in Prešov, Slovakia — Yesterday and Last 2 Weeks

Now
72 °F

Sunny.


Feels Like: 77 °F
Forecast: 46 / 74 °F
Wind: 12 mph from South

Location: Kosice - Barca

Current Time: Sep 29, 2016 at 5:19:19 PM

Latest Report: Sep 29, 2016 at 5:00 PM


Visibility: 10 mi

Pressure: 30.12 "Hg

Humidity: 53%

Dew Point: 54 °F

Location of PrešovLocation

Past Weather in Prešov — Graph

°F

Prešov Temperature Yesterday

Maximum temperature yesterday: 70 °F (at 3:00 PM)
Minimum temperature yesterday: 41 °F (at 7:00 AM)
Average temperature yesterday: 56 °F

High & Low Weather Summary for the Past Weeks

 TemperatureHumidityPressure
High81 °F (Sep 14, 4:00 PM)100% (Sep 25, 4:30 AM)30.36 "Hg (Sep 25, 4:30 AM)
Low39 °F (Sep 22, 4:00 AM)35% (Sep 23, 2:00 PM)29.77 "Hg (Sep 19, 6:30 AM)
Average59 °F70%30.09 "Hg
* Reported Sep 14 4:00 PM — Sep 29 4:00 PM, Prešov, Weather by CustomWeather, © 2016

Note: Actual official high and low records may vary slightly from our data, if they occured in-between our weather recording intervals... More about our weather records

Advertising

Prešov Weather History for the Previous 24 Hours

Scroll right to see more
 ConditionsComfort  
Time TempWeatherWind HumidityBarometerVisibility
4:00 PM
Thu, Sep 29
73 °FPassing clouds.10 mph44%30.15 "HgN/A
3:30 PM73 °FSunny.10 mph47%30.15 "Hg10 mi
3:00 PM72 °FPassing clouds.8 mph50%30.15 "HgN/A
2:30 PM72 °FPassing clouds.8 mph50%30.15 "HgN/A
2:00 PM72 °FSunny.10 mph53%30.18 "Hg10 mi
1:30 PM72 °FPassing clouds.8 mph50%30.18 "HgN/A
1:00 PM70 °FPassing clouds.8 mph53%30.18 "HgN/A
12:30 PM70 °FPassing clouds.6 mph53%30.18 "HgN/A
12:00 PM68 °FPassing clouds.3 mph56%30.21 "HgN/A
11:30 AM68 °FPassing clouds.3 mph56%30.21 "HgN/A
11:00 AM66 °FSunny.2 mph60%30.21 "Hg10 mi
10:30 AM64 °FPassing clouds.3 mph64%30.21 "HgN/A
10:00 AM63 °FSunny.3 mph68%30.21 "Hg10 mi
9:30 AM59 °FSunny.2 mph77%30.24 "Hg10 mi
9:00 AM57 °FSunny.2 mph82%30.21 "Hg10 mi
8:30 AM55 °FPartly sunny.2 mph88%30.24 "HgN/A
8:00 AM55 °FSunny.2 mph82%30.21 "Hg10 mi
7:30 AM54 °FSunny.1 mph88%30.21 "Hg10 mi
7:00 AM52 °FSunny.2 mph94%30.21 "Hg10 mi
6:30 AM52 °FClear.1 mph88%30.21 "Hg10 mi
6:00 AM54 °FClear.1 mph82%30.21 "Hg10 mi
5:30 AM52 °FClear.5 mph88%30.21 "Hg10 mi
5:00 AM52 °FPassing clouds.3 mph88%30.21 "HgN/A
4:30 AM54 °FClear.5 mph88%30.21 "Hg10 mi
4:00 AM52 °FClear.2 mph94%30.21 "Hg10 mi
3:30 AM52 °FClear.2 mph88%30.21 "Hg10 mi
3:00 AM52 °FClear.5 mph88%30.24 "Hg10 mi
2:30 AM52 °FClear.6 mph88%30.21 "Hg10 mi
2:00 AM54 °FClear.1 mph82%30.24 "Hg10 mi
1:30 AM54 °FClear.2 mph88%30.24 "Hg10 mi
1:00 AM54 °FClear.3 mph82%30.24 "Hg10 mi
12:30 AM54 °FClear.3 mph82%30.24 "Hg10 mi
12:00 AM55 °FClear.2 mph77%30.24 "Hg10 mi
11:30 PM
Wed, Sep 28
54 °FClear.6 mph82%30.24 "Hg10 mi
11:00 PM59 °FClear.6 mph72%30.24 "Hg10 mi
10:30 PM57 °FPassing clouds.3 mph77%30.24 "HgN/A
10:00 PM55 °FClear.10 mph77%30.24 "Hg10 mi
9:30 PM55 °FClear.10 mph77%30.24 "Hg10 mi
9:00 PM57 °FClear.10 mph72%30.24 "Hg10 mi
8:30 PM61 °FClear.10 mph63%30.24 "Hg10 mi
8:00 PM61 °FClear.12 mph63%30.24 "Hg10 mi
7:30 PM63 °FClear.13 mph59%30.24 "Hg10 mi
7:00 PM63 °FClear.13 mph59%30.24 "Hg10 mi
6:30 PM64 °FClear.10 mph56%30.24 "Hg10 mi
6:00 PM66 °FSunny.10 mph52%30.24 "Hg10 mi
5:30 PM68 °FSunny.9 mph49%30.27 "Hg10 mi
5:00 PM68 °FSunny.9 mph49%30.27 "Hg10 mi
Weather by CustomWeather, © 2016

See weather overviewHow to use our weather pages